Location: Cointrin
(46.2167°N, 6.1167°E)
Time: 04:38:42
(UTC+00:00)

Cosmos 1943 Rocket - Pass Details

Date: 08 February 2023
Orbit: 811 x 844 km, 71.0° (Epoch: 26 March)

Event Time Altitude Azimuth Distance (km) Brightness Sun altitude
Rises 20:44:01 0° 327° (NNW) 3,411 6.0 -40.3°
Reaches altitude 10° 20:46:37 10° 320° (NW) 2,470 5.2 -40.7°
Enters shadow 20:48:39 21° 308° (NW) 1,806 4.4 -41.0°
